Address 0xf22d276b65a248bb55be5688bd8fb44974bd51d8 1

Txn Hash Method
Block
From
To
Value [Txn Fee]
0x5a3ff14316476b79cd4163b5094cff9f3303b89ac26641d16b83398d789b65faTransfer87014462021-05-09 21:16:54130 days 1 hr ago0xf22d276b65a248bb55be5688bd8fb44974bd51d8OUT 0x5e0d48dc7e46e39cc8f4453655974c156fc7b6b20 BNB0.00173678
0x781f92025d9a774a6419dca6e8c2e04619e1a1afc83fd96b01a8bbfd0277e0160x6080604087014022021-05-09 21:14:42130 days 1 hr ago0xf22d276b65a248bb55be5688bd8fb44974bd51d8OUT Contract Creation0 BNB0.01869761
0x8048fd7490bc28aa164f297f9a22f0aa341d9e9dd47ae26997e306d3c63008efTransfer87013292021-05-09 21:11:03130 days 2 hrs ago0xf22d276b65a248bb55be5688bd8fb44974bd51d8OUT 0x7b15629717eee5941861f7efffa4553b0f15f0550 BNB0.0011046
0x58533a4792cdcac6afa3b5a56b9487fe1e3c2e26488f288e8102b9d531fa3f15Transfer87013092021-05-09 21:10:03130 days 2 hrs ago0xf22d276b65a248bb55be5688bd8fb44974bd51d8OUT 0x7b15629717eee5941861f7efffa4553b0f15f0550 BNB0.00088849
0x846c17241d6446d0b030547a9eeb41d4c5582fb041b3191a37811944d9b9c951Exclude Account87013072021-05-09 21:09:57130 days 2 hrs ago0xf22d276b65a248bb55be5688bd8fb44974bd51d8OUT 0x7b15629717eee5941861f7efffa4553b0f15f0550 BNB0.00111993
0x07729888addd3c619ebe324dac62c9b48b4c0805de7686721050bf6da74c7eb4Transfer87012962021-05-09 21:09:24130 days 2 hrs ago0xf22d276b65a248bb55be5688bd8fb44974bd51d8OUT 0x7b15629717eee5941861f7efffa4553b0f15f0550 BNB0.00088849
0x55e7e5395eb2412b0c1b6bac63f3e4874dac2bf7b35d6fa3f97e36feeb164edcTransfer87012932021-05-09 21:09:15130 days 2 hrs ago0xf22d276b65a248bb55be5688bd8fb44974bd51d8OUT 0x7b15629717eee5941861f7efffa4553b0f15f0550 BNB0.00088849
0x89c725d98f2cd2192bea6b605044db7c2e8c016caa1d71408e70263935bb018eTransfer87012922021-05-09 21:09:12130 days 2 hrs ago0xf22d276b65a248bb55be5688bd8fb44974bd51d8OUT 0x7b15629717eee5941861f7efffa4553b0f15f0550 BNB0.00088849
0xd07cbf3cff5929fb77987697772464801a7197ccbf3a092da763c29c2d994d76Transfer87012902021-05-09 21:09:06130 days 2 hrs ago0xf22d276b65a248bb55be5688bd8fb44974bd51d8OUT 0x7b15629717eee5941861f7efffa4553b0f15f0550 BNB0.00088849
0xb2a178b8d82ab3c586c45d29a7b159f195c1d84cf48f44e1ab7003ca2cfcc942Transfer87012902021-05-09 21:09:06130 days 2 hrs ago0xf22d276b65a248bb55be5688bd8fb44974bd51d8OUT 0x7b15629717eee5941861f7efffa4553b0f15f0550 BNB0.00088849
0x607e3fb4baa6e3e0947e196d1393a849fca03d948ff9954310dd9904f385fe11Transfer87012872021-05-09 21:08:57130 days 2 hrs ago0xf22d276b65a248bb55be5688bd8fb44974bd51d8OUT 0x7b15629717eee5941861f7efffa4553b0f15f0550 BNB0.00088849
0x9729a7971ec96236ed6fc0d8c58313e34e7fdcac148fa31d83f7cae13a9263a2Transfer87012862021-05-09 21:08:54130 days 2 hrs ago0xf22d276b65a248bb55be5688bd8fb44974bd51d8OUT 0x7b15629717eee5941861f7efffa4553b0f15f0550 BNB0.00088849
0x987e81cb9c3061016dea811d67f028ad0a6035b3982010a638b56ad80de7528eTransfer87012852021-05-09 21:08:51130 days 2 hrs ago0xf22d276b65a248bb55be5688bd8fb44974bd51d8OUT 0x7b15629717eee5941861f7efffa4553b0f15f0550 BNB0.00088849
0x0598903150a6184a4b4627b810caefb057e47c1672cdc8781c41780c45529db2Transfer87012852021-05-09 21:08:51130 days 2 hrs ago0xf22d276b65a248bb55be5688bd8fb44974bd51d8OUT 0x7b15629717eee5941861f7efffa4553b0f15f0550 BNB0.00088849
0xe1697bc449283695131a7ddfc74e66cbcfaed8b96b7744077c27afe01e44fbafTransfer87012792021-05-09 21:08:33130 days 2 hrs ago0xf22d276b65a248bb55be5688bd8fb44974bd51d8OUT 0x7b15629717eee5941861f7efffa4553b0f15f0550 BNB0.00047495
0xad65fd87137fe70d5726847bb1449eb572b62b60b6af51e8f9f6e8af6bb83554Transfer87012632021-05-09 21:07:45130 days 2 hrs ago0xf22d276b65a248bb55be5688bd8fb44974bd51d8OUT 0x7b15629717eee5941861f7efffa4553b0f15f0550 BNB0.00088849
0xfb5950dfdd23571843d66acc08b28d7502d01d2080b14a81ed5a5b57dad2115aTransfer87012492021-05-09 21:07:03130 days 2 hrs ago0xf22d276b65a248bb55be5688bd8fb44974bd51d8OUT 0x7b15629717eee5941861f7efffa4553b0f15f0550 BNB0.00088825
0x7246c2720ce62f09d5faa1bd90d0de76c528224599fc4e908e83fa580f78d4f6Transfer87012322021-05-09 21:06:12130 days 2 hrs ago0xf22d276b65a248bb55be5688bd8fb44974bd51d8OUT 0x7b15629717eee5941861f7efffa4553b0f15f0550 BNB0.00148801
0xb53c95685850cc66036dee4722a5af8f57192688a1b6fc012bbbb329c965a6edTransfer87011972021-05-09 21:04:27130 days 2 hrs ago0xf22d276b65a248bb55be5688bd8fb44974bd51d8OUT 0x7b15629717eee5941861f7efffa4553b0f15f0550 BNB0.00062495
0x25597828c7f8a0c34a4a7daf041f63e81db74e0327d4ce2e5bf5b7522de0f4ee0x6080604087011472021-05-09 21:01:57130 days 2 hrs ago0xf22d276b65a248bb55be5688bd8fb44974bd51d8OUT Contract Creation0 BNB0.01856206
0x10027ff497be0917dfdd23f8dd73f5a1f55cdad41f3e6fd95b9157abdf585f630x6080604087011142021-05-09 21:00:18130 days 2 hrs ago0xf22d276b65a248bb55be5688bd8fb44974bd51d8OUT Contract Creation0 BNB0.01836056
0x184fc18ed616c585ba6767afe0df0c911bbc6f20234c88ea4fef54f9ff6f5198Transfer87009052021-05-09 20:49:51130 days 2 hrs ago0xf22d276b65a248bb55be5688bd8fb44974bd51d8OUT 0x3d78b1f0e3cdeeb77c685b5db79b366d39b07de40 BNB0.00148801
0x428bc277d9b66ad6f26ffd9a66598be9cf199d69f1f84cc93887b1374c6ce7be0x6080604087008742021-05-09 20:48:18130 days 2 hrs ago0xf22d276b65a248bb55be5688bd8fb44974bd51d8OUT Contract Creation0 BNB0.01878693
0x2a717b1c3fc30d162b32675cfb0373e4ad854273fc656a2bfc4e1b54bf967a64Transfer86955892021-05-09 16:23:55130 days 6 hrs ago0xf22d276b65a248bb55be5688bd8fb44974bd51d8OUT 0xbd33406f2ba5afb0b4c553e3196458cd5df318df0 BNB0.00120312
0x4fd7c680e97752f797b549044b2aa3d6fbb683e253b73616c0ae4172f6d258edExclude From Rew...86955702021-05-09 16:22:58130 days 6 hrs ago0xf22d276b65a248bb55be5688bd8fb44974bd51d8OUT 0xbd33406f2ba5afb0b4c553e3196458cd5df318df0 BNB0.00113616
[ Download CSV Export 
Parent Txn Hash Block From To Value
Loading

Contract Name:
0 BNB

Compiler Version
0

Optimization Enabled:
0 BNB

Other Settings:
-NA-
Block Transaction Gas Used Reward
Age Block Fee Address BC Fee Address Voting Power Jailed Incoming
Block Uncle Number Difficulty Gas Used Reward
Loading